This demonstration page uses our WeatherBlox Daily Observations layout. Learn more.

Left ArrowRight Arrow

39.12711, -84.51439

Hourly Observations for September 22, 2022

Temp ( °F °C ) Dew Point ( °F °C ) Humidity (%) Winds ( mph kmh ) Pressure ( in mb ) Visibility ( mi km ) Precip ( " mm )
12:53 am 00:53 Clear 73 22.8 67 19.4 81 81 SW 7 11 29.83 1010 10 16 0.00 0.00
1:53 am 01:53 Cloudy 74 23.3 67 19.4 79 79 WSW 5 7 29.82 1010 10 16 0.00 0.00
2:53 am 02:53 Cloudy 76 24.4 67 19.4 74 74 NNW 7 11 29.84 1010 10 16 0.00 0.00
3:53 am 03:53 Mostly Cloudy 74 23.3 64 17.8 71 71 N 13 20 29.84 1011 10 16 0.00 0.00
4:53 am 04:53 Partly Cloudy 71 21.7 56 13.3 59 59 N 15 24 29.87 1011 10 16 0.00 0.00
5:53 am 05:53 Cloudy 68 20 54 12.2 61 61 N 21 33 29.90 1013 10 16 0.00 0.00
6:53 am 06:53 Mostly Cloudy 65 18.3 52 11.1 63 63 NNW 14 22 29.94 1014 10 16 0.00 0.00
7:53 am 07:53 Sunny 65 18.3 52 11.1 63 63 NNW 10 17 29.97 1015 10 16 0.00 0.00
8:31 am 08:31 Mostly Sunny 65 18.3 52 11.1 63 63 NNW 12 19 29.98 1015 10 16 0.00 0.00
8:53 am 08:53 Mostly Sunny 66 18.9 52 11.1 61 61 N 15 24 29.99 1016 10 16 0.00 0.00
9:53 am 09:53 Partly Cloudy 67 19.4 52 11.1 59 59 N 14 22 30.00 1016 10 16 0.00 0.00
10:53 am 10:53 Mostly Cloudy 68 20 52 11.1 57 57 N 14 22 30.03 1017 10 16 0.00 0.00
11:53 am 11:53 Mostly Cloudy 68 20 48 8.9 49 49 N 15 24 30.04 1017 10 16 0.00 0.00
12:53 pm 12:53 Mostly Cloudy 69 20.6 47 8.3 45 45 N 15 24 30.05 1018 10 16 0.00 0.00
1:53 pm 13:53 Mostly Cloudy 71 21.7 47 8.3 42 42 NNW 12 19 30.04 1017 10 16 0.00 0.00
2:53 pm 14:53 Partly Cloudy 71 21.7 47 8.3 42 42 NNW 15 24 30.04 1017 10 16 0.00 0.00
3:53 pm 15:53 Partly Cloudy 70 21.1 44 6.7 39 39 N 16 26 30.04 1017 10 16 0.00 0.00
4:53 pm 16:53 Partly Cloudy 70 21.1 43 6.1 38 38 N 22 35 30.04 1017 10 16 0.00 0.00
5:53 pm 17:53 Mostly Sunny 68 20 42 5.6 39 39 N 13 20 30.06 1018 10 16 0.00 0.00
6:53 pm 18:53 Mostly Sunny 67 19.4 43 6.1 42 42 N 10 17 30.07 1018 10 16 0.00 0.00
7:53 pm 19:53 Mostly Clear 64 17.8 41 5 43 43 N 13 20 30.09 1019 10 16 0.00 0.00
8:53 pm 20:53 Clear 61 16.1 41 5 48 48 N 10 17 30.11 1020 10 16 0.00 0.00
9:53 pm 21:53 Clear 59 15 41 5 51 51 N 7 11 30.13 1020 10 16 0.00 0.00
10:53 pm 22:53 Clear 55 12.8 42 5.6 62 62 N 3 6 30.14 1021 10 16 0.00 0.00
11:53 pm 23:53 Clear 52 11.1 45 7.2 77 77 ENE 3 6 30.16 1021 10 16 0.00 0.00

Powered by AerisWeather